Location: Beuerbach
(48.1459°N, 10.9174°E)
Time: 18:47:57
(UTC+00:00)

Cosmos 2322 Rocket - Pass Details

Date: 23 May 2024
Orbit: 831 x 850 km, 71.0° (Epoch: 23 June)

Event Time Altitude Azimuth Distance (km) Brightness Sun altitude
Rises 00:51:36 0° 334° (NNW) 3,400 5.9 -17.8°
Reaches altitude 10° 00:54:06 10° 338° (NNW) 2,465 5.2 -17.6°
Maximum altitude 00:59:41 58° 58° (ENE) 977 2.8 -17.2°
Drops below altitude 10° 01:05:15 10° 137° (SE) 2,463 4.4 -16.8°
Sets 01:07:44 0° 141° (SE) 3,396 5.1 -16.6°
